Simultaneous Nadir Overpasses (SNOs) Predictions

Prediction of SNOs between AQUA and METOP-B Satellite Orbit:

Table of predicted SNOs for the next 14.0 days since TLE Epoch: 1/10/2016
Index Date (AQUA) Time (AQUA) Lat,Lon (AQUA) SZA (AQUA ) Date (METOP-B) Time (METOP-B) Lat,Lon (METOP-B) SZA (METOP-B ) Distance(km) Time Diff (sec)
1 01/12/2016 18:17:42 73.76,-100.10 95.45 01/12/2016 18:16:29 73.77,-100.07 95.47 1.22 73
2 01/12/2016 19:07:09 -73.83, 67.40 84.49 01/12/2016 19:07:10 -73.82, 67.37 84.49 1.39 1
3 01/12/2016 19:56:38 73.91,-125.15 95.60 01/12/2016 19:57:48 73.90,-125.11 95.58 2.17 70
4 01/15/2016 13:51:59 73.76, -33.67 94.98 01/15/2016 13:50:50 73.75, -33.72 94.98 2.02 69
5 01/15/2016 14:41:26 -73.82, 133.84 84.97 01/15/2016 14:41:30 -73.85, 133.84 84.94 2.93 4
6 01/15/2016 15:30:55 73.91, -58.72 95.12 01/15/2016 15:32:08 73.93, -58.64 95.13 3.00 73
7 01/18/2016 09:26:16 73.78, 32.73 94.46 01/18/2016 09:25:10 73.78, 32.75 94.47 0.48 66
8 01/18/2016 10:15:43 -73.84,-159.75 85.49 01/18/2016 10:15:51 -73.83,-159.81 85.50 2.11 8
9 01/18/2016 11:05:14 74.03, 7.45 94.72 01/18/2016 11:06:26 74.05, 8.07 94.71 19.22 72
10 01/21/2016 05:00:32 73.81, 99.10 93.91 01/21/2016 04:59:29 73.80, 99.21 93.91 3.41 63
11 01/21/2016 05:49:59 -73.86, -93.38 86.04 01/21/2016 05:50:10 -73.85, -93.35 86.06 2.13 11
12 01/21/2016 06:39:33 74.22, 73.45 94.34 01/21/2016 06:40:42 74.22, 74.90 94.28 43.64 69
13 01/24/2016 00:34:48 73.80, 165.55 93.27 01/24/2016 00:33:49 73.81, 165.65 93.29 3.36 59
14 01/24/2016 01:24:15 -73.86, -26.93 86.68 01/24/2016 01:24:30 -73.86, -26.91 86.68 0.97 15




NCC Satellite Simultaneous Nadir Overpasses (SNOs) Prediction Service
